GHST13 ESMT-ESMT

Flight info

Callsign GHST13
Flight time 0h 34m
Altitude 5000
Route DCT BAK DCT STAY01/0030 ESL2 STAY01/0030 DCT STAY02/0030 ESB1 STAY02/0030 DCT MF
Aircraft SB39/M-SDE3FGHIRWY/S

Departure

Time 2026-04-18 11:41
Airport Halmstad Airport (ESMT)

Arrival

Time 2026-04-18 12:16
Airport Halmstad Airport (ESMT)
Time Latitude Longitude Altitude Speed Heading
2026-04-18 11:37 56.68668 12.82644 71 ft 0 kts 253°
2026-04-18 11:37 56.68668 12.82643 71 ft 1 kts 253°
2026-04-18 11:38 56.68624 12.82569 71 ft 10 kts 167°
2026-04-18 11:38 56.68531 12.82617 71 ft 18 kts 163°
2026-04-18 11:38 56.68427 12.82669 70 ft 13 kts 172°
2026-04-18 11:38 56.68339 12.82646 71 ft 15 kts 199°
2026-04-18 11:39 56.68250 12.82515 71 ft 16 kts 232°
2026-04-18 11:39 56.68186 12.82364 71 ft 14 kts 232°
2026-04-18 11:39 56.68127 12.82232 71 ft 15 kts 232°
2026-04-18 11:39 56.68067 12.82083 65 ft 14 kts 243°
2026-04-18 11:40 56.68056 12.81970 71 ft 6 kts 275°
2026-04-18 11:40 56.68061 12.81912 71 ft 6 kts 288°
2026-04-18 11:40 56.68106 12.81824 71 ft 7 kts
2026-04-18 11:40 56.68212 12.81844 71 ft 93 kts
2026-04-18 11:41 56.69869 12.82165 405 ft 354 kts
2026-04-18 11:41 56.72453 12.82614 1046 ft 387 kts
2026-04-18 11:41 56.75145 12.82038 1257 ft 402 kts 329°
2026-04-18 11:41 56.76736 12.78049 1195 ft 409 kts 286°
2026-04-18 11:42 56.77542 12.72966 1075 ft 420 kts 285°
2026-04-18 11:42 56.78363 12.67921 968 ft 409 kts 285°
2026-04-18 11:42 56.79192 12.62997 882 ft 403 kts 285°
2026-04-18 11:42 56.80036 12.58049 802 ft 409 kts 286°
2026-04-18 11:43 56.80864 12.53097 738 ft 408 kts 284°
2026-04-18 11:43 56.81249 12.48015 675 ft 405 kts 271°
2026-04-18 11:43 56.81259 12.42901 764 ft 401 kts 269°
2026-04-18 11:43 56.81253 12.37783 946 ft 402 kts 268°
2026-04-18 11:44 56.81437 12.32705 1172 ft 404 kts 281°
2026-04-18 11:44 56.82503 12.28017 1187 ft 408 kts 296°
2026-04-18 11:44 56.83846 12.23309 1190 ft 421 kts 295°
2026-04-18 11:44 56.85110 12.18501 1140 ft 421 kts 294°
2026-04-18 11:45 56.86383 12.13748 1082 ft 445 kts 296°
2026-04-18 11:45 56.88202 12.09195 1150 ft 443 kts 308°
2026-04-18 11:45 56.89942 12.04818 1070 ft 391 kts 301°
2026-04-18 11:45 56.91585 12.01151 1012 ft 397 kts 316°
2026-04-18 11:46 56.93979 11.98537 923 ft 406 kts 337°
2026-04-18 11:46 56.96549 11.96920 961 ft 381 kts 342°
2026-04-18 11:46 56.99031 11.95625 942 ft 365 kts 345°
2026-04-18 11:46 57.01479 11.94422 988 ft 369 kts 345°
2026-04-18 11:47 57.03957 11.93234 1004 ft 366 kts 345°
2026-04-18 11:47 57.06428 11.92010 998 ft 351 kts 341°
2026-04-18 11:47 57.08781 11.90406 1009 ft 375 kts 338°
2026-04-18 11:47 57.11152 11.88601 1029 ft 351 kts 336°
2026-04-18 11:48 57.13386 11.86882 1057 ft 354 kts 336°
2026-04-18 11:48 57.15695 11.85101 1148 ft 364 kts 336°
2026-04-18 11:48 57.18043 11.83287 1312 ft 368 kts 336°
2026-04-18 11:48 57.20410 11.81433 1319 ft 365 kts 335°
2026-04-18 11:49 57.22634 11.79228 988 ft 385 kts 332°
2026-04-18 11:49 57.24963 11.77323 998 ft 365 kts 335°
2026-04-18 11:49 57.27285 11.75422 989 ft 358 kts 335°
2026-04-18 11:49 57.29576 11.73564 1052 ft 364 kts 335°
2026-04-18 11:50 57.31908 11.71614 1009 ft 370 kts 334°
2026-04-18 11:50 57.34212 11.69646 972 ft 359 kts 335°
2026-04-18 11:50 57.36490 11.67757 967 ft 362 kts 335°
2026-04-18 11:50 57.38852 11.65759 1002 ft 379 kts 335°
2026-04-18 11:51 57.41139 11.63845 1036 ft 344 kts 336°
2026-04-18 11:51 57.43403 11.62001 1042 ft 368 kts 335°
2026-04-18 11:51 57.45752 11.60019 1051 ft 361 kts 335°
2026-04-18 11:51 57.48038 11.58084 1015 ft 372 kts 334°
2026-04-18 11:52 57.50371 11.56069 998 ft 367 kts 335°
2026-04-18 11:52 57.52714 11.54064 1003 ft 372 kts 335°
2026-04-18 11:52 57.55022 11.52137 997 ft 369 kts 335°
2026-04-18 11:52 57.57352 11.50145 985 ft 366 kts 335°
2026-04-18 11:53 57.59648 11.48193 979 ft 353 kts 335°
2026-04-18 11:53 57.61929 11.46266 1011 ft 372 kts 334°
2026-04-18 11:53 57.64227 11.44328 1047 ft 351 kts 336°
2026-04-18 11:53 57.66535 11.42423 1045 ft 382 kts 335°
2026-04-18 11:54 57.68881 11.40510 1037 ft 347 kts 336°
2026-04-18 11:54 57.71122 11.38627 1069 ft 362 kts 335°
2026-04-18 11:54 57.73464 11.36848 941 ft 366 kts 342°
2026-04-18 11:54 57.75954 11.36756 862 ft 351 kts 14°
2026-04-18 11:55 57.78150 11.38743 839 ft 352 kts 40°
2026-04-18 11:55 57.79659 11.42337 846 ft 355 kts 66°
2026-04-18 11:55 57.80107 11.46686 880 ft 343 kts 93°
2026-04-18 11:55 57.79445 11.50947 921 ft 340 kts 120°
2026-04-18 11:56 57.77875 11.54351 1010 ft 352 kts 138°
2026-04-18 11:56 57.76044 11.57226 993 ft 363 kts 141°
2026-04-18 11:56 57.74158 11.59953 1010 ft 336 kts 144°
2026-04-18 11:56 57.72283 11.62570 997 ft 343 kts 144°
2026-04-18 11:57 57.70363 11.65191 1062 ft 339 kts 145°
2026-04-18 11:57 57.68416 11.67844 998 ft 344 kts 144°
2026-04-18 11:57 57.66493 11.70394 983 ft 319 kts 147°
2026-04-18 11:57 57.64581 11.72813 1041 ft 358 kts 144°
2026-04-18 11:58 57.62676 11.75416 1189 ft 300 kts 152°
2026-04-18 11:58 57.60868 11.77563 998 ft 349 kts 141°
2026-04-18 11:58 57.58951 11.80589 948 ft 353 kts 146°
2026-04-18 11:58 57.57074 11.82993 1078 ft 321 kts 146°
2026-04-18 11:59 57.55237 11.85610 860 ft 369 kts 149°
2026-04-18 11:59 57.53240 11.87947 1269 ft 322 kts 147°
2026-04-18 11:59 57.51306 11.90798 944 ft 355 kts 146°
2026-04-18 11:59 57.49459 11.93111 958 ft 325 kts 145°
2026-04-18 12:00 57.47435 11.95971 954 ft 347 kts 150°
2026-04-18 12:00 57.45160 11.97063 910 ft 344 kts 177°
2026-04-18 12:00 57.42861 11.97063 993 ft 332 kts 181°
2026-04-18 12:00 57.40556 11.96804 1003 ft 346 kts 184°
2026-04-18 12:01 57.35861 11.95915 980 ft 329 kts 185°
2026-04-18 12:01 57.33662 11.95480 1056 ft 326 kts 181°
2026-04-18 12:01 57.31261 11.95151 973 ft 360 kts 184°
2026-04-18 12:02 57.28918 11.94647 997 ft 309 kts 187°
2026-04-18 12:02 57.26603 11.94566 985 ft 365 kts 168°
2026-04-18 12:02 57.24310 11.96034 983 ft 320 kts 159°
2026-04-18 12:02 57.22116 11.97738 979 ft 350 kts 155°
2026-04-18 12:03 57.20045 11.99452 965 ft 324 kts 156°
2026-04-18 12:03 57.17872 12.01337 965 ft 355 kts 154°
2026-04-18 12:03 57.15735 12.03105 984 ft 317 kts 158°
2026-04-18 12:03 57.13572 12.04865 1091 ft 348 kts 155°
2026-04-18 12:04 57.11504 12.06923 1010 ft 350 kts 154°
2026-04-18 12:04 57.09330 12.08841 1010 ft 344 kts 155°
2026-04-18 12:04 57.07201 12.10708 1012 ft 347 kts 154°
2026-04-18 12:04 57.05082 12.12573 1010 ft 333 kts 155°
2026-04-18 12:05 57.02975 12.14384 1038 ft 334 kts 155°
2026-04-18 12:05 57.00882 12.16287 1002 ft 336 kts 155°
2026-04-18 12:05 56.98938 12.18564 920 ft 333 kts 136°
2026-04-18 12:05 56.97365 12.21834 955 ft 341 kts 132°
2026-04-18 12:06 56.95856 12.25142 985 ft 330 kts 131°
2026-04-18 12:06 56.94365 12.28442 1003 ft 356 kts 131°
2026-04-18 12:06 56.92884 12.31795 1029 ft 311 kts 128°
2026-04-18 12:06 56.91396 12.35093 1026 ft 374 kts 134°
2026-04-18 12:07 56.89851 12.38438 971 ft 337 kts 130°
2026-04-18 12:07 56.88338 12.41792 1005 ft 347 kts 131°
2026-04-18 12:07 56.86841 12.45128 1010 ft 356 kts 130°
2026-04-18 12:07 56.85318 12.48501 1005 ft 340 kts 131°
2026-04-18 12:08 56.83693 12.51549 950 ft 328 kts 142°
2026-04-18 12:08 56.81763 12.53832 1032 ft 359 kts 155°
2026-04-18 12:08 56.79561 12.55613 986 ft 342 kts 157°
2026-04-18 12:08 56.77289 12.57273 1011 ft 345 kts 159°
2026-04-18 12:09 56.75079 12.58814 997 ft 352 kts 160°
2026-04-18 12:09 56.72888 12.60339 1034 ft 339 kts 160°
2026-04-18 12:09 56.70669 12.61779 1041 ft 331 kts 165°
2026-04-18 12:09 56.68348 12.62121 1005 ft 341 kts 180°
2026-04-18 12:10 56.66021 12.61945 1015 ft 348 kts 184°
2026-04-18 12:10 56.63675 12.61619 1018 ft 339 kts 184°
2026-04-18 12:10 56.61292 12.61201 1019 ft 336 kts 185°
2026-04-18 12:10 56.58983 12.60875 978 ft 339 kts 179°
2026-04-18 12:11 56.56721 12.62107 901 ft 347 kts 150°
2026-04-18 12:11 56.55081 12.65162 941 ft 345 kts 124°
2026-04-18 12:11 56.54343 12.69253 883 ft 340 kts 99°
2026-04-18 12:11 56.54515 12.73668 831 ft 345 kts 75°
2026-04-18 12:12 56.55550 12.77387 784 ft 351 kts 53°
2026-04-18 12:12 56.57646 12.79407 1033 ft 335 kts
2026-04-18 12:12 56.60105 12.80075 1121 ft 383 kts
2026-04-18 12:12 56.62763 12.80647 1062 ft 365 kts
2026-04-18 12:13 56.65321 12.81212 879 ft 364 kts
2026-04-18 12:13 56.67841 12.81721 656 ft 376 kts
2026-04-18 12:13 56.69937 12.80827 567 ft 283 kts 285°
2026-04-18 12:13 56.69444 12.78215 858 ft 197 kts 219°
2026-04-18 12:14 56.68391 12.76979 933 ft 194 kts 205°
2026-04-18 12:14 56.67038 12.76140 880 ft 210 kts 178°
2026-04-18 12:14 56.66158 12.77607 681 ft 172 kts 101°
2026-04-18 12:14 56.66279 12.79609 635 ft 150 kts 78°
2026-04-18 12:15 56.66787 12.81121 425 ft 137 kts 37°
2026-04-18 12:15 56.67745 12.81740 200 ft 150 kts
2026-04-18 12:15 56.68737 12.81950 69 ft 126 kts
2026-04-18 12:15 56.69386 12.82083 73 ft 81 kts
2026-04-18 12:16 56.69841 12.82173 70 ft 47 kts
2026-04-18 12:16 56.70046 12.82231 70 ft 17 kts 35°
2026-04-18 12:16 56.70095 12.82205 69 ft 4 kts 227°
2026-04-18 12:16 56.70003 12.82182 65 ft 23 kts 186°
2026-04-18 12:17 56.69815 12.82146 66 ft 32 kts 186°
2026-04-18 12:17 56.69634 12.82111 68 ft 14 kts 186°
2026-04-18 12:17 56.69514 12.82094 72 ft 18 kts 184°
2026-04-18 12:17 56.69392 12.82074 73 ft 22 kts 187°
2026-04-18 12:18 56.69187 12.82036 69 ft 31 kts 185°
2026-04-18 12:18 56.68983 12.82001 66 ft 28 kts 186°
2026-04-18 12:18 56.68805 12.81961 72 ft 24 kts 186°
2026-04-18 12:18 56.68712 12.81994 64 ft 10 kts 119°
2026-04-18 12:19 56.68704 12.82137 72 ft 13 kts 96°
2026-04-18 12:19 56.68700 12.82291 71 ft 12 kts 85°
2026-04-18 12:19 56.68717 12.82418 67 ft 9 kts 73°
2026-04-18 12:19 56.68737 12.82547 71 ft 11 kts 74°
2026-04-18 12:20 56.68737 12.82672 68 ft 5 kts 149°
2026-04-18 12:20 56.68723 12.82659 71 ft 3 kts 279°
2026-04-18 12:20 56.68727 12.82611 67 ft 1 kts 252°
2026-04-18 12:20 56.68724 12.82599 69 ft 0 kts 253°